GSTAR KLAX-KMEM

Flight info

Callsign GSTAR
Flight time N/A
Altitude 35000
Route DOTSS2 CLEEE DCT PKE DCT HIDAT DCT KA27O DCT NABOB DCT KA27Q DCT KA27S DCT IMMAS DCT KA30Y/N0477F370 DCT KF30A DCT IRW DCT LITTR HOBRK4
Aircraft L101/H-SDFGHIRWXY/S

Departure

Time 2026-04-23 22:38
Airport Los Angeles International Airport (KLAX)

Arrival

Time N/A
Airport Memphis International Airport (KMEM)
Time Latitude Longitude Altitude Speed Heading
2026-04-23 22:24 33.94541 -118.41005 98 ft 0 kts 263°
2026-04-23 22:26 33.94542 -118.40992 97 ft 3 kts 263°
2026-04-23 22:26 33.94545 -118.40966 98 ft 4 kts 266°
2026-04-23 22:26 33.94542 -118.40936 95 ft 4 kts 301°
2026-04-23 22:27 33.94524 -118.40914 96 ft 4 kts 332°
2026-04-23 22:27 33.94513 -118.40908 97 ft 4 kts 336°
2026-04-23 22:27 33.94538 -118.40916 96 ft 2 kts 354°
2026-04-23 22:27 33.94540 -118.40916 96 ft 0 kts 354°
2026-04-23 22:32 33.94544 -118.40917 97 ft 2 kts 355°
2026-04-23 22:32 33.94573 -118.40910 99 ft 6 kts 22°
2026-04-23 22:32 33.94630 -118.40898 98 ft 10 kts 355°
2026-04-23 22:32 33.94710 -118.40911 99 ft 13 kts 352°
2026-04-23 22:33 33.94778 -118.40888 100 ft 9 kts 15°
2026-04-23 22:33 33.94826 -118.40861 100 ft 8 kts 49°
2026-04-23 22:33 33.94836 -118.40840 99 ft 9 kts 65°
2026-04-23 22:33 33.94855 -118.40671 99 ft 16 kts 84°
2026-04-23 22:34 33.94870 -118.40524 99 ft 20 kts 82°
2026-04-23 22:34 33.94888 -118.40354 100 ft 18 kts 82°
2026-04-23 22:34 33.94901 -118.40234 100 ft 12 kts 82°
2026-04-23 22:34 33.94915 -118.40191 100 ft 0 kts 47°
2026-04-23 22:35 33.94916 -118.40190 100 ft 1 kts 52°
2026-04-23 22:35 33.94919 -118.40171 99 ft 4 kts 88°
2026-04-23 22:36 33.94914 -118.40117 99 ft 9 kts 91°
2026-04-23 22:36 33.94922 -118.40025 99 ft 13 kts 83°
2026-04-23 22:36 33.94941 -118.39939 100 ft 9 kts 55°
2026-04-23 22:36 33.95008 -118.39914 100 ft 12 kts 355°
2026-04-23 22:37 33.95041 -118.39965 99 ft 10 kts 268°
2026-04-23 22:37 33.95016 -118.40210 103 ft 64 kts 263°
2026-04-23 22:37 33.94927 -118.41059 103 ft 140 kts 263°
2026-04-23 22:37 33.94788 -118.42423 509 ft 181 kts 264°
2026-04-23 22:38 33.94613 -118.44106 948 ft 208 kts 262°
2026-04-23 22:38 33.94344 -118.45774 1050 ft 201 kts 257°
2026-04-23 22:38 33.94064 -118.47393 1113 ft 205 kts 260°
2026-04-23 22:38 33.93850 -118.49085 1283 ft 202 kts 261°
2026-04-23 22:39 33.93630 -118.50755 1601 ft 204 kts 260°
2026-04-23 22:39 33.93414 -118.52487 1915 ft 216 kts 262°
2026-04-23 22:39 33.93203 -118.54432 2266 ft 249 kts 262°
2026-04-23 22:39 33.93032 -118.56566 2563 ft 262 kts 268°
2026-04-23 22:40 33.93014 -118.58774 2779 ft 266 kts 271°
2026-04-23 22:40 33.93058 -118.60999 3007 ft 268 kts 272°
2026-04-23 22:40 33.92407 -118.65337 3333 ft 268 kts 235°
2026-04-23 22:41 33.91075 -118.66903 3453 ft 270 kts 209°
2026-04-23 22:41 33.89324 -118.67658 3578 ft 268 kts 188°
2026-04-23 22:41 33.87458 -118.67870 3791 ft 269 kts 180°
2026-04-23 22:41 33.85578 -118.67889 3994 ft 272 kts 177°
2026-04-23 22:42 33.83640 -118.67788 4462 ft 282 kts 167°
2026-04-23 22:42 33.81856 -118.66962 5448 ft 269 kts 147°
2026-04-23 22:42 33.80330 -118.65652 6191 ft 274 kts 140°
2026-04-23 22:42 33.78828 -118.64095 6540 ft 293 kts 136°
2026-04-23 22:43 33.77350 -118.62436 7415 ft 285 kts 136°
2026-04-23 22:43 33.75920 -118.60753 8098 ft 294 kts 135°
2026-04-23 22:43 33.74434 -118.58944 8421 ft 312 kts 135°
2026-04-23 22:43 33.72937 -118.57072 9331 ft 306 kts 135°
2026-04-23 22:44 33.71481 -118.55211 10082 ft 310 kts 135°
2026-04-23 22:44 33.69967 -118.53254 10310 ft 330 kts 135°
2026-04-23 22:44 33.68366 -118.51171 10444 ft 350 kts 134°
2026-04-23 22:44 33.66674 -118.48968 10561 ft 368 kts 134°
2026-04-23 22:45 33.64963 -118.46586 10647 ft 386 kts 127°
2026-04-23 22:45 33.63625 -118.43725 10768 ft 401 kts 114°
2026-04-23 22:45 33.62702 -118.40559 11316 ft 403 kts 107°
2026-04-23 22:45 33.61971 -118.37280 11658 ft 410 kts 104°
2026-04-23 22:46 33.61333 -118.33945 12166 ft 413 kts 102°
2026-04-23 22:46 33.60733 -118.30559 12634 ft 417 kts 102°
2026-04-23 22:46 33.60149 -118.27134 13111 ft 422 kts 101°
2026-04-23 22:46 33.59571 -118.23667 13579 ft 426 kts 101°
2026-04-23 22:47 33.58999 -118.20208 14037 ft 430 kts 101°
2026-04-23 22:47 33.58429 -118.16618 14506 ft 434 kts 99°
2026-04-23 22:47 33.58015 -118.13024 14955 ft 437 kts 96°
2026-04-23 22:47 33.57719 -118.09433 15440 ft 440 kts 95°
2026-04-23 22:48 33.57473 -118.05757 15937 ft 444 kts 94°
2026-04-23 22:48 33.57253 -118.01999 16431 ft 448 kts 94°
2026-04-23 22:48 33.57053 -117.98347 16712 ft 438 kts 93°
2026-04-23 22:48 33.57084 -117.94816 16830 ft 412 kts 80°
2026-04-23 22:49 33.57793 -117.91558 16968 ft 399 kts 66°
2026-04-23 22:49 33.58964 -117.88546 17031 ft 399 kts 58°
2026-04-23 22:49 33.60384 -117.85676 17030 ft 400 kts 52°
2026-04-23 22:49 33.62172 -117.83171 16969 ft 391 kts 35°
2026-04-23 22:50 33.64408 -117.81433 16966 ft 378 kts 17°
2026-04-23 22:50 33.66887 -117.80582 16971 ft 366 kts 360°
2026-04-23 22:50 33.69384 -117.80664 16976 ft 355 kts 342°
2026-04-23 22:50 33.71671 -117.81626 16991 ft 344 kts 331°
2026-04-23 22:51 33.73981 -117.82535 16996 ft 357 kts 344°
2026-04-23 22:51 33.76482 -117.82712 16961 ft 366 kts 359°
2026-04-23 22:51 33.79002 -117.82112 16958 ft 375 kts 13°
2026-04-23 22:51 33.81380 -117.80752 16950 ft 384 kts 28°
2026-04-23 22:52 33.83465 -117.78695 16952 ft 392 kts 43°
2026-04-23 22:52 33.85113 -117.76062 16972 ft 398 kts 57°
2026-04-23 22:52 33.86223 -117.72990 16998 ft 404 kts 72°
2026-04-23 22:52 33.86719 -117.69662 17062 ft 406 kts 86°
2026-04-23 22:53 33.86581 -117.66269 17124 ft 407 kts 99°
2026-04-23 22:53 33.85997 -117.62944 17348 ft 403 kts 106°
2026-04-23 22:53 33.85178 -117.59768 18227 ft 400 kts 115°
2026-04-23 22:53 33.83796 -117.56812 18379 ft 413 kts 132°
2026-04-23 22:54 33.81744 -117.54358 18518 ft 422 kts 148°
2026-04-23 22:54 33.79175 -117.52613 18635 ft 428 kts 164°
2026-04-23 22:54 33.76278 -117.51728 18762 ft 431 kts 180°
2026-04-23 22:54 33.73303 -117.51458 19269 ft 431 kts 177°
2026-04-23 22:55 33.70347 -117.50505 19617 ft 449 kts 161°
2026-04-23 22:55 33.67629 -117.48630 20297 ft 457 kts 147°
2026-04-23 22:55 33.65292 -117.45968 20744 ft 469 kts 131°
2026-04-23 22:55 33.63514 -117.42668 21332 ft 477 kts 118°
2026-04-23 22:56 33.62392 -117.38897 21861 ft 484 kts 103°
2026-04-23 22:56 33.62027 -117.34879 22420 ft 488 kts 89°
2026-04-23 22:56 33.62443 -117.30835 22952 ft 490 kts 74°
2026-04-23 22:56 33.63624 -117.27009 23520 ft 490 kts 59°
2026-04-23 22:57 33.65506 -117.23612 23990 ft 488 kts 45°
2026-04-23 22:57 33.67952 -117.20833 24471 ft 484 kts 36°
2026-04-23 22:57 33.70410 -117.18024 24846 ft 495 kts 47°
2026-04-23 22:57 33.72333 -117.14555 25309 ft 506 kts 60°
2026-04-23 22:58 33.73638 -117.10632 25455 ft 521 kts 72°
2026-04-23 22:58 33.74421 -117.06340 25591 ft 532 kts 80°
2026-04-23 22:58 33.74860 -117.01883 25723 ft 542 kts 84°
2026-04-23 22:58 33.75126 -116.97357 26176 ft 543 kts 87°
2026-04-23 22:59 33.75160 -116.92831 26767 ft 542 kts 91°
2026-04-23 22:59 33.74985 -116.88311 27397 ft 541 kts 94°
2026-04-23 22:59 33.74725 -116.84149 27866 ft 543 kts 95°
2026-04-23 22:59 33.94540 -118.41010 98 ft 0 kts 263°
2026-04-23 23:00 33.94541 -118.41005 98 ft 0 kts 263°